2023-117C (57582 NORAD) Tracking and Keplerian Element Data

This shows tracking and keplerian element data for the satellite.

Feedback or suggestion? Click here.




ElementValue
Catalog57582
Name2023-117C
Epoch Orbit256
Epoch Day239.16503683
Epoch Year2023
RAAN310.7743
Inclination97.5229
Eccentricity0.0010911
Argument of Perigee229.8156
Mean Anonmoly130.212
Mean Motion15.11148648
Decay Rate4.671E-05
L11 57582U 23117C 23239.16503683 .00004671 00000+0 28202-3 0 9996
L22 57582 97.5229 310.7743 0010911 229.8156 130.2120 15.11148648 2564



Live tracking and technical data element details for 2023-117C (NORAD 57582). 2023-117C can be tracked NOW for your location showing map with azimuth and elevation plus other details from your city location.







IsCatalogInMostPopularTable: catalog: 57582, numindb: 17
Update: records affected: 1



GetName: 57582 2023-117C

Hit Count: updated at: Mon, 04 Dec 2023 03:29:56 GMT